EN

Hourly Weather Aluatu

Today, 26 January, Tuesday

Time Temperature Precipitation Wind Pressure Humidity
00:00 +1°C° 0 mm 4 mps 750 mmHg 68%
01:00 0°C° 0 mm 4 mps 751 mmHg 72%
02:00 +1°C° 0 mm 3 mps 751 mmHg 76%
03:00 +1°C° 0 mm 3 mps 751 mmHg 76%
04:00 +1°C° 0 mm 3 mps 751 mmHg 77%
05:00 +1°C° 0 mm 3 mps 751 mmHg 77%
06:00 +2°C° 0 mm 2 mps 751 mmHg 76%
07:00 +2°C° 0 mm 2 mps 751 mmHg 75%
08:00 +3°C° 0 mm 1 mps 751 mmHg 74%
09:00 +3°C° 0 mm 2 mps 752 mmHg 73%
10:00 +2°C° 0 mm 3 mps 752 mmHg 72%
11:00 +3°C° 0 mm 3 mps 752 mmHg 72%
12:00 +3°C° 0.2 mm 3 mps 753 mmHg 73%
13:00 +3°C° 0.2 mm 4 mps 753 mmHg 74%
14:00 +3°C° 0.2 mm 4 mps 753 mmHg 75%
15:00 +3°C° 0 mm 3 mps 753 mmHg 74%
16:00 +3°C° 0 mm 3 mps 754 mmHg 72%
17:00 +3°C° 0 mm 3 mps 754 mmHg 70%
18:00 +2°C° 0 mm 3 mps 754 mmHg 72%
19:00 +2°C° 0 mm 3 mps 754 mmHg 73%
20:00 +1°C° 0 mm 4 mps 754 mmHg 74%
21:00 0°C° 0 mm 4 mps 754 mmHg 75%
22:00 0°C° 0 mm 5 mps 754 mmHg 75%
23:00 0°C° 0 mm 5 mps 754 mmHg 76%

Tomorrow, 27 January, Wednesday

Time Temperature Precipitation Wind Pressure Humidity
00:00 -1°C° 0.3 mm 7 mps 754 mmHg 79%
01:00 -2°C° 0.3 mm 8 mps 753 mmHg 83%
02:00 -3°C° 0.3 mm 9 mps 753 mmHg 86%
03:00 -4°C° 1.1 mm 10 mps 752 mmHg 89%
04:00 -4°C° 1.1 mm 10 mps 751 mmHg 92%
05:00 -4°C° 1.1 mm 11 mps 750 mmHg 95%
06:00 -4°C° 2.9 mm 11 mps 750 mmHg 95%
07:00 -6°C° 2.9 mm 11 mps 750 mmHg 95%
08:00 -6°C° 2.9 mm 11 mps 749 mmHg 95%
09:00 -5°C° 2.2 mm 12 mps 749 mmHg 95%
10:00 -5°C° 2.2 mm 12 mps 748 mmHg 95%
11:00 -5°C° 2.2 mm 12 mps 748 mmHg 95%
12:00 -5°C° 2 mm 12 mps 747 mmHg 95%
13:00 -5°C° 2 mm 12 mps 746 mmHg 95%
14:00 -5°C° 2 mm 12 mps 745 mmHg 95%
15:00 -5°C° 1 mm 12 mps 745 mmHg 94%
16:00 -4°C° 1 mm 11 mps 745 mmHg 93%
17:00 -4°C° 1 mm 11 mps 745 mmHg 92%
18:00 -4°C° 0.1 mm 11 mps 745 mmHg 92%
19:00 -4°C° 0.1 mm 11 mps 745 mmHg 91%
20:00 -4°C° 0.1 mm 10 mps 746 mmHg 91%
21:00 -4°C° 0.1 mm 10 mps 746 mmHg 91%
22:00 -4°C° 0.1 mm 9 mps 746 mmHg 92%
23:00 -4°C° 0.1 mm 9 mps 746 mmHg 92%

Day after tomorrow, 28 January, Thursday

Time Temperature Precipitation Wind Pressure Humidity
00:00 -4°C° 0.1 mm 9 mps 746 mmHg 92%
01:00 -4°C° 0.1 mm 9 mps 746 mmHg 92%
02:00 -4°C° 0.1 mm 9 mps 746 mmHg 92%
03:00 -4°C° 0.2 mm 9 mps 746 mmHg 93%
04:00 -4°C° 0.2 mm 9 mps 746 mmHg 94%
05:00 -4°C° 0.2 mm 9 mps 745 mmHg 95%
06:00 -4°C° 0.9 mm 9 mps 746 mmHg 95%
07:00 -5°C° 0.9 mm 9 mps 746 mmHg 95%
08:00 -5°C° 0.9 mm 9 mps 746 mmHg 94%
09:00 -4°C° 0.8 mm 9 mps 747 mmHg 95%
10:00 -4°C° 0.8 mm 9 mps 747 mmHg 95%
11:00 -4°C° 0.8 mm 9 mps 747 mmHg 96%
12:00 -4°C° 0.9 mm 9 mps 747 mmHg 95%
13:00 -4°C° 0.9 mm 9 mps 748 mmHg 95%
14:00 -4°C° 0.9 mm 10 mps 748 mmHg 95%
15:00 -5°C° 0.5 mm 9 mps 748 mmHg 95%
16:00 -5°C° 0.5 mm 9 mps 749 mmHg 94%
17:00 -5°C° 0.5 mm 8 mps 749 mmHg 94%
18:00 -5°C° 0.2 mm 8 mps 749 mmHg 94%
19:00 -4°C° 0.2 mm 7 mps 750 mmHg 95%
20:00 -4°C° 0.2 mm 7 mps 750 mmHg 95%
21:00 -4°C° 0.3 mm 6 mps 751 mmHg 95%
22:00 -4°C° 0.3 mm 6 mps 751 mmHg 94%
23:00 -4°C° 0.3 mm 5 mps 751 mmHg 94%

29 January, Friday

Time Temperature Precipitation Wind Pressure Humidity
00:00 -5°C° 0.1 mm 5 mps 752 mmHg 92%
01:00 -5°C° 0.1 mm 5 mps 752 mmHg 91%
02:00 -5°C° 0.1 mm 5 mps 752 mmHg 89%
03:00 -5°C° 0 mm 4 mps 752 mmHg 88%
04:00 -7°C° 0 mm 4 mps 753 mmHg 87%
05:00 -7°C° 0 mm 3 mps 753 mmHg 85%
06:00 -7°C° 0 mm 3 mps 753 mmHg 84%
07:00 -7°C° 0 mm 3 mps 753 mmHg 83%
08:00 -7°C° 0 mm 3 mps 753 mmHg 81%
09:00 -6°C° 0 mm 3 mps 753 mmHg 83%
10:00 -5°C° 0 mm 3 mps 753 mmHg 84%
11:00 -4°C° 0 mm 3 mps 753 mmHg 85%
12:00 -4°C° 0 mm 3 mps 753 mmHg 87%
13:00 -3°C° 0 mm 4 mps 752 mmHg 88%
14:00 -3°C° 0 mm 4 mps 752 mmHg 89%
15:00 -3°C° 0 mm 4 mps 751 mmHg 90%
16:00 -4°C° 0 mm 4 mps 751 mmHg 91%
17:00 -4°C° 0 mm 3 mps 751 mmHg 92%
18:00 -4°C° 0 mm 3 mps 751 mmHg 93%
19:00 -4°C° 0 mm 3 mps 751 mmHg 94%
20:00 -4°C° 0 mm 3 mps 751 mmHg 96%
21:00 -4°C° 0 mm 3 mps 751 mmHg 95%
22:00 -3°C° 0 mm 4 mps 750 mmHg 95%
23:00 -3°C° 0 mm 4 mps 750 mmHg 95%

30 January, Saturday

Time Temperature Precipitation Wind Pressure Humidity
00:00 -2°C° 0.1 mm 4 mps 750 mmHg 95%
01:00 -2°C° 0.1 mm 5 mps 750 mmHg 96%
02:00 -2°C° 0.1 mm 6 mps 749 mmHg 97%
03:00 -1°C° 0 mm 5 mps 749 mmHg 97%
04:00 -1°C° 0 mm 5 mps 749 mmHg 96%
05:00 -1°C° 0 mm 4 mps 748 mmHg 96%
06:00 -1°C° 0 mm 5 mps 748 mmHg 94%
07:00 -1°C° 0 mm 5 mps 748 mmHg 91%
08:00 -1°C° 0 mm 5 mps 748 mmHg 89%
09:00 -1°C° 0 mm 5 mps 748 mmHg 92%
10:00 0°C° 0 mm 4 mps 748 mmHg 96%
11:00 0°C° 0 mm 4 mps 748 mmHg 99%
12:00 +1°C° 0 mm 3 mps 748 mmHg 99%
13:00 +1°C° 0 mm 3 mps 748 mmHg 99%
14:00 +1°C° 0 mm 3 mps 748 mmHg 99%
15:00 +1°C° 0 mm 3 mps 748 mmHg 99%
16:00 +1°C° 0 mm 3 mps 748 mmHg 99%
17:00 0°C° 0 mm 4 mps 747 mmHg 99%
18:00 0°C° 0 mm 4 mps 748 mmHg 96%
19:00 0°C° 0 mm 5 mps 748 mmHg 94%
20:00 0°C° 0 mm 5 mps 748 mmHg 91%
21:00 0°C° 0 mm 5 mps 749 mmHg 92%
22:00 -1°C° 0 mm 4 mps 750 mmHg 93%
23:00 -1°C° 0 mm 4 mps 750 mmHg 93%

31 January, Sunday

Time Temperature Precipitation Wind Pressure Humidity
00:00 -2°C° 0 mm 4 mps 751 mmHg 90%
01:00 -4°C° 0 mm 5 mps 752 mmHg 87%
02:00 -5°C° 0 mm 5 mps 753 mmHg 83%
03:00 -4°C° 0 mm 4 mps 753 mmHg 84%
04:00 -4°C° 0 mm 4 mps 754 mmHg 84%
05:00 -4°C° 0 mm 3 mps 754 mmHg 84%
06:00 -6°C° 0 mm 3 mps 755 mmHg 84%
07:00 -6°C° 0 mm 2 mps 755 mmHg 84%
08:00 -7°C° 0 mm 2 mps 756 mmHg 84%
09:00 -5°C° 0 mm 2 mps 757 mmHg 82%
10:00 -2°C° 0 mm 1 mps 757 mmHg 80%
11:00 -1°C° 0 mm 1 mps 757 mmHg 78%
12:00 -2°C° 0 mm 2 mps 757 mmHg 80%
13:00 -2°C° 0 mm 2 mps 757 mmHg 82%
14:00 -1°C° 0 mm 2 mps 757 mmHg 85%
15:00 -2°C° 0 mm 2 mps 756 mmHg 85%
16:00 -3°C° 0 mm 2 mps 756 mmHg 85%
17:00 -4°C° 0 mm 2 mps 756 mmHg 85%
18:00 -4°C° 0 mm 2 mps 756 mmHg 85%
19:00 -5°C° 0 mm 2 mps 756 mmHg 84%
20:00 -6°C° 0 mm 3 mps 756 mmHg 84%
21:00 -6°C° 0 mm 3 mps 755 mmHg 85%
22:00 -6°C° 0 mm 3 mps 755 mmHg 86%
23:00 -6°C° 0 mm 3 mps 754 mmHg 87%
Show more